Regional Weather Roundup
Issued by NWS Albany, NY

Home | Current Version | Previous Version | Text Only | Print | Product List | Glossary On
Versions: 1 2 3 4 5 6 7 8 9 10 11 12 13 14 15 16 17 18 19 20 21 22 23 24 25 26 27 28 29 30 31 32 33 34 35 36 37 38 39 40 41 42 43 44 45 46 47 48 49 50
822
ASUS41 KALY 240410
RWRALY

NEW YORK STATE HOURLY WEATHER ROUNDUP
NATIONAL WEATHER SERVICE ALBANY NY
1200 AM EDT MON JUL 24 2017

NOTE: "FAIR" INDICATES FEW OR NO CLOUDS BELOW 12,000 FEET WITH NO
SIGNIFICANT WEATHER AND/OR NO OBSTRUCTIONS TO VISIBILITY.

NYZ032-033-038>043-046>054-057>066-NYZ062>081-082-084-240500-
EAST


CITY           SKY/WX    TMP DP  RH WIND       PRES   REMARKS
ALBANY         CLOUDY    72  60  66 SE5       29.86S
GLENS FALLS    CLOUDY    66  55  67 E6        29.86F
POUGHKEEPSIE   CLOUDY    71  63  75 SE6       29.86R
NEWBURGH       CLOUDY    72  66  83 SE12      29.89R
MONTGOMERY     CLOUDY    71  65  81 SE3       29.87R
WHITE PLAINS   LGT RAIN  70  64  83 E10G17    29.88R
ISLIP          CLOUDY    71  66  84 E8        29.88R
NEW YORK CITY  CLOUDY    74  68  81 SE13      29.86R
CENTRAL PARK   CLOUDY    73  67  81 VRB5      29.89R
$$

NYZ005>009-017-018-044>046-055-056-240500-
CENTRAL


CITY           SKY/WX    TMP DP  RH WIND       PRES   REMARKS
FULTON         CLOUDY    72  64  76 VRB5      29.74F
SYRACUSE       CLOUDY    69  65  86 E8        29.75F
ROME           CLOUDY    72  64  76 E8        29.80F
ELMIRA         RAIN      69  68  96 NW6       29.76S FOG
BINGHAMTON     LGT RAIN  63  61  93 S9        29.83R
$$

NYZ026>034-041>043-087-240500-
NORTH


CITY           SKY/WX    TMP DP  RH WIND       PRES   REMARKS
WATERTOWN      LGT RAIN  65  60  84 NE10      29.77F
FORT DRUM      NOT AVBL
OGDENSBURG     CLOUDY    67  53  59 E8        29.83F
MASSENA        MOCLDY    64  51  62 E7        29.87F
SARANAC LAKE   CLOUDY    59  49  69 NE8       29.91S
PLATTSBURGH    CLOUDY    64  51  62 NW6       29.89F
$$

NYZ001>004-010>016-019>021-085-240500-
WEST


CITY           SKY/WX    TMP DP  RH WIND       PRES   REMARKS
NIAGARA FALLS  CLOUDY    71  64  78 E6        29.73F
BUFFALO        CLOUDY    69  67  93 NE5       29.74F
DUNKIRK        CLOUDY    71  68  90 S5        29.74F
JAMESTOWN      CLOUDY    66  63  88 CALM      29.79S
WELLSVILLE     RAIN      68  66  93 MISG      29.83R FOG
ROCHESTER      MOCLDY    72  67  84 SE6       29.73F
PENN YAN       CLOUDY    68  65  90 SW3       29.75F
$$

             KEY
       WCI = WIND CHILL INDEX
       VSB = VISIBILITY
       HX  = HEAT INDEX
$$




USA.gov is the U.S. government's official web portal to all federal, state and local government web resources and services.